When you browse on this site, cookies collect data to enhance your experience and personalize the content and advertising you see.
Visit our Privacy Policy to learn more. By continuing to use the site, you agree to this use of cookies and data.
  • In Hungary
  • List of Countries
  • For 7 days
  • Water Temperature
  • Weather Map
  • News
  • Weather Widgets
  • user-avatar
    Login

    Hourly Weather Barcelos

    Today, 17 November, Sunday

    Time Temperature Precipitation Wind Pressure Humidity
    00:00 +10°C° 0 mm 3 mps 759 mmHg 79%
    01:00 +10°C° 0 mm 3 mps 759 mmHg 78%
    02:00 +10°C° 0 mm 3 mps 759 mmHg 78%
    03:00 +10°C° 0.1 mm 2 mps 759 mmHg 81%
    04:00 +10°C° 0.1 mm 2 mps 758 mmHg 83%
    05:00 +11°C° 0 mm 1 mps 758 mmHg 89%
    06:00 +11°C° 0.1 mm 1 mps 758 mmHg 90%
    07:00 +11°C° 0.1 mm 1 mps 759 mmHg 91%
    08:00 +12°C° 0.1 mm 1 mps 759 mmHg 92%
    09:00 +12°C° 0.4 mm 2 mps 759 mmHg 93%
    10:00 +12°C° 0.4 mm 3 mps 759 mmHg 94%
    11:00 +12°C° 0.4 mm 3 mps 759 mmHg 94%
    12:00 +13°C° 0.2 mm 4 mps 758 mmHg 89%
    13:00 +13°C° 0.2 mm 5 mps 758 mmHg 83%
    14:00 +13°C° 0.2 mm 6 mps 758 mmHg 77%
    15:00 +12°C° 0 mm 5 mps 758 mmHg 79%
    16:00 +9°C° 0 mm 5 mps 759 mmHg 81%
    17:00 +8°C° 0 mm 5 mps 759 mmHg 83%
    18:00 +8°C° 0 mm 4 mps 759 mmHg 85%
    19:00 +8°C° 0 mm 4 mps 760 mmHg 86%
    20:00 +8°C° 0 mm 3 mps 760 mmHg 87%
    21:00 +8°C° 0.1 mm 3 mps 760 mmHg 88%
    22:00 +8°C° 0.1 mm 3 mps 760 mmHg 89%
    23:00 +8°C° 0.1 mm 3 mps 760 mmHg 90%

    Tomorrow, 18 November, Monday

    Time Temperature Precipitation Wind Pressure Humidity
    00:00 +8°C° 0 mm 3 mps 760 mmHg 91%
    01:00 +7°C° 0 mm 2 mps 760 mmHg 91%
    02:00 +7°C° 0 mm 2 mps 760 mmHg 92%
    03:00 +7°C° 0 mm 2 mps 760 mmHg 91%
    04:00 +7°C° 0 mm 2 mps 761 mmHg 91%
    05:00 +6°C° 0 mm 2 mps 761 mmHg 90%
    06:00 +7°C° 0 mm 2 mps 761 mmHg 88%
    07:00 +8°C° 0 mm 2 mps 761 mmHg 85%
    08:00 +8°C° 0 mm 2 mps 762 mmHg 83%
    09:00 +10°C° 0 mm 2 mps 762 mmHg 76%
    10:00 +12°C° 0 mm 2 mps 762 mmHg 70%
    11:00 +14°C° 0 mm 2 mps 761 mmHg 63%
    12:00 +14°C° 0 mm 2 mps 761 mmHg 62%
    13:00 +14°C° 0 mm 2 mps 761 mmHg 61%
    14:00 +13°C° 0 mm 3 mps 761 mmHg 60%
    15:00 +13°C° 0 mm 2 mps 761 mmHg 68%
    16:00 +10°C° 0 mm 2 mps 761 mmHg 75%
    17:00 +9°C° 0 mm 2 mps 761 mmHg 83%
    18:00 +10°C° 0 mm 1 mps 761 mmHg 84%
    19:00 +9°C° 0 mm 1 mps 761 mmHg 84%
    20:00 +9°C° 0 mm 1 mps 762 mmHg 85%
    21:00 +9°C° 0 mm 1 mps 761 mmHg 84%
    22:00 +10°C° 0 mm 1 mps 761 mmHg 83%
    23:00 +10°C° 0 mm 1 mps 761 mmHg 82%

    Day after tomorrow, 19 November, Tuesday

    Time Temperature Precipitation Wind Pressure Humidity
    00:00 +9°C° 0.1 mm 2 mps 761 mmHg 83%
    01:00 +9°C° 0.1 mm 2 mps 760 mmHg 84%
    02:00 +9°C° 0.1 mm 2 mps 760 mmHg 85%
    03:00 +9°C° 0.9 mm 3 mps 760 mmHg 87%
    04:00 +9°C° 0.9 mm 3 mps 759 mmHg 90%
    05:00 +9°C° 0.9 mm 3 mps 759 mmHg 92%
    06:00 +8°C° 0.3 mm 4 mps 759 mmHg 91%
    07:00 +8°C° 0.3 mm 4 mps 759 mmHg 89%
    08:00 +8°C° 0.3 mm 4 mps 759 mmHg 88%
    09:00 +10°C° 0.2 mm 4 mps 759 mmHg 87%
    10:00 +10°C° 0.2 mm 4 mps 759 mmHg 86%
    11:00 +10°C° 0.2 mm 4 mps 758 mmHg 85%
    12:00 +10°C° 0.3 mm 4 mps 758 mmHg 86%
    13:00 +10°C° 0.3 mm 4 mps 757 mmHg 87%
    14:00 +11°C° 0.3 mm 3 mps 757 mmHg 88%
    15:00 +11°C° 0.2 mm 3 mps 757 mmHg 88%
    16:00 +11°C° 0.2 mm 3 mps 757 mmHg 89%
    17:00 +12°C° 0.2 mm 2 mps 756 mmHg 90%
    18:00 +12°C° 0.2 mm 2 mps 756 mmHg 91%
    19:00 +12°C° 0.2 mm 2 mps 756 mmHg 91%
    20:00 +10°C° 0.2 mm 2 mps 756 mmHg 91%
    21:00 +10°C° 0.1 mm 2 mps 756 mmHg 91%
    22:00 +10°C° 0.1 mm 2 mps 756 mmHg 90%
    23:00 +10°C° 0.1 mm 3 mps 755 mmHg 90%

    20 November, Wednesday

    Time Temperature Precipitation Wind Pressure Humidity
    00:00 +10°C° 0.1 mm 3 mps 755 mmHg 90%
    01:00 +10°C° 0.1 mm 3 mps 754 mmHg 89%
    02:00 +9°C° 0.1 mm 3 mps 754 mmHg 89%
    03:00 +10°C° 0.5 mm 4 mps 753 mmHg 90%
    04:00 +10°C° 0.5 mm 4 mps 753 mmHg 91%
    05:00 +9°C° 0.5 mm 5 mps 752 mmHg 91%
    06:00 +9°C° 1.8 mm 5 mps 752 mmHg 92%
    07:00 +10°C° 1.8 mm 5 mps 752 mmHg 92%
    08:00 +10°C° 1.8 mm 5 mps 752 mmHg 92%
    09:00 +10°C° 1.3 mm 5 mps 751 mmHg 91%
    10:00 +12°C° 1.3 mm 5 mps 751 mmHg 90%
    11:00 +12°C° 1.3 mm 5 mps 751 mmHg 88%
    12:00 +12°C° 1.3 mm 5 mps 750 mmHg 87%
    13:00 +11°C° 1.3 mm 6 mps 750 mmHg 87%
    14:00 +13°C° 1.3 mm 6 mps 749 mmHg 86%
    15:00 +11°C° 1.3 mm 6 mps 749 mmHg 86%
    16:00 +11°C° 1.3 mm 6 mps 749 mmHg 86%
    17:00 +11°C° 1.3 mm 6 mps 749 mmHg 86%
    18:00 +10°C° 0.7 mm 6 mps 749 mmHg 85%
    19:00 +10°C° 0.7 mm 5 mps 749 mmHg 85%
    20:00 +10°C° 0.7 mm 4 mps 750 mmHg 85%
    21:00 +10°C° 0.4 mm 4 mps 750 mmHg 85%
    22:00 +10°C° 0.4 mm 4 mps 750 mmHg 85%
    23:00 +8°C° 0.4 mm 4 mps 750 mmHg 85%

    21 November, Thursday

    Time Temperature Precipitation Wind Pressure Humidity
    00:00 +8°C° 0.7 mm 4 mps 750 mmHg 86%
    01:00 +8°C° 0.7 mm 4 mps 750 mmHg 86%
    02:00 +9°C° 0.7 mm 5 mps 750 mmHg 87%
    03:00 +9°C° 0.9 mm 5 mps 750 mmHg 87%
    04:00 +9°C° 0.9 mm 5 mps 750 mmHg 87%
    05:00 +9°C° 0.9 mm 5 mps 750 mmHg 87%
    06:00 +9°C° 0.8 mm 5 mps 750 mmHg 86%
    07:00 +10°C° 0.8 mm 5 mps 750 mmHg 85%
    08:00 +10°C° 0.8 mm 5 mps 751 mmHg 84%
    09:00 +10°C° 0.6 mm 5 mps 751 mmHg 81%
    10:00 +11°C° 0.6 mm 6 mps 751 mmHg 78%
    11:00 +13°C° 0.6 mm 6 mps 751 mmHg 76%
    12:00 +11°C° 0.7 mm 6 mps 750 mmHg 76%
    13:00 +11°C° 0.7 mm 6 mps 750 mmHg 77%
    14:00 +11°C° 0.7 mm 6 mps 749 mmHg 78%
    15:00 +12°C° 0.6 mm 5 mps 749 mmHg 79%
    16:00 +10°C° 0.6 mm 5 mps 750 mmHg 81%
    17:00 +9°C° 0.6 mm 5 mps 750 mmHg 83%
    18:00 +9°C° 0.9 mm 5 mps 750 mmHg 84%
    19:00 +10°C° 0.9 mm 4 mps 750 mmHg 85%
    20:00 +10°C° 0.9 mm 4 mps 750 mmHg 86%
    21:00 +10°C° 0.9 mm 4 mps 750 mmHg 86%
    22:00 +10°C° 0.9 mm 4 mps 750 mmHg 86%
    23:00 +8°C° 0.9 mm 4 mps 750 mmHg 86%

    22 November, Friday

    Time Temperature Precipitation Wind Pressure Humidity
    00:00 +10°C° 1 mm 4 mps 750 mmHg 86%
    01:00 +10°C° 1 mm 4 mps 750 mmHg 86%
    02:00 +9°C° 1 mm 5 mps 750 mmHg 87%
    03:00 +9°C° 0.9 mm 5 mps 750 mmHg 87%
    04:00 +9°C° 0.9 mm 5 mps 750 mmHg 88%
    05:00 +9°C° 0.9 mm 5 mps 750 mmHg 88%
    06:00 +9°C° 0.8 mm 5 mps 751 mmHg 87%
    07:00 +10°C° 0.8 mm 4 mps 751 mmHg 86%
    08:00 +11°C° 0.8 mm 3 mps 752 mmHg 84%
    09:00 +12°C° 0.2 mm 4 mps 752 mmHg 80%
    10:00 +12°C° 0.2 mm 4 mps 752 mmHg 76%
    11:00 +13°C° 0.2 mm 4 mps 752 mmHg 71%
    12:00 +13°C° 0.5 mm 5 mps 752 mmHg 75%
    13:00 +13°C° 0.5 mm 5 mps 752 mmHg 78%
    14:00 +13°C° 0.5 mm 5 mps 752 mmHg 82%
    15:00 +12°C° 0.6 mm 5 mps 753 mmHg 84%
    16:00 +11°C° 0.6 mm 4 mps 753 mmHg 87%
    17:00 +11°C° 0.6 mm 4 mps 754 mmHg 89%
    18:00 +10°C° 0.3 mm 3 mps 754 mmHg 90%
    19:00 +10°C° 0.3 mm 3 mps 755 mmHg 91%
    20:00 +9°C° 0.3 mm 2 mps 755 mmHg 92%
    21:00 +9°C° 0.2 mm 2 mps 756 mmHg 92%
    22:00 +9°C° 0.2 mm 2 mps 756 mmHg 92%
    23:00 +9°C° 0.2 mm 2 mps 757 mmHg 92%
    Show more